Location: 22
(39.7117°N, 89.5929°W)
Time: 11:48:53
(UTC-06:00)

Explorer 11/Cluster Stage 4 - Visible Passes

Search period start: 07 February 2023 00:00
Search period end: 17 February 2023 00:00
Orbit: 466 x 1243 km, 28.8° (Epoch: 06 February)

Date Brightness Start Highest point End Pass type
(mag) Time Alt. Az. Time Alt. Az. Time Alt. Az.
07 Feb 9.4 03:04:28 17° ESE 03:04:28 17° ESE 03:06:39 10° ESE visible
07 Feb 8.3 04:46:27 30° SSW 04:48:48 36° S 04:56:03 10° ESE visible
07 Feb 8.7 06:30:24 10° WSW 06:37:16 33° S 06:44:19 10° SE visible
08 Feb 9.6 02:51:57 14° ESE 02:51:57 14° ESE 02:53:04 10° ESE visible
08 Feb 8.1 04:33:55 34° SSW 04:35:14 36° S 04:42:24 10° ESE visible
08 Feb 8.6 06:17:00 10° WSW 06:23:40 32° SSW 06:30:38 10° SE visible
09 Feb 9.8 02:39:24 10° ESE 02:39:24 10° ESE 02:39:28 10° ESE visible
09 Feb 8.1 04:21:22 35° S 04:21:41 35° S 04:28:44 10° ESE visible
09 Feb 8.6 06:03:39 10° WSW 06:10:04 30° SSW 06:16:53 10° SE visible
10 Feb 8.2 04:08:49 34° SSE 04:08:49 34° SSE 04:15:00 10° ESE visible
10 Feb 8.7 05:50:48 12° WSW 05:56:28 28° SSW 06:03:04 10° SE visible
11 Feb 8.4 03:56:17 30° SSE 03:56:17 30° SSE 04:01:16 10° ESE visible
11 Feb 8.7 05:38:15 14° WSW 05:42:52 26° SSW 05:49:11 10° SE visible
12 Feb 8.7 03:43:46 25° SE 03:43:46 25° SE 03:47:29 10° ESE visible
12 Feb 8.6 05:25:44 16° SW 05:29:17 24° SSW 05:35:14 10° SSE visible
13 Feb 9.1 03:31:17 19° SE 03:31:17 19° SE 03:33:40 10° SE visible
13 Feb 8.6 05:13:14 18° SW 05:15:43 21° SSW 05:21:13 10° SSE visible
14 Feb 9.4 03:18:49 14° SE 03:18:49 14° SE 03:19:49 10° SE visible
14 Feb 8.6 05:00:47 18° SSW 05:02:09 19° SSW 05:07:06 10° SSE visible
15 Feb 8.8 04:48:22 16° SSW 04:48:37 16° SSW 04:52:51 10° SSE visible
16 Feb 9.0 04:35:59 14° S 04:35:59 14° S 04:38:27 10° S visible
